Location: York
(31.8935°S, 116.7682°E)
Time: 02:42:47
(UTC+08:00)

Tiros 1 despin weight - Visible Passes

Search period start: 19 June 2021 00:00
Search period end: 29 June 2021 00:00
Orbit: 593 x 641 km, 48.2° (Epoch: 17 June)

Date Brightness Start Highest point End Pass type
(mag) Time Alt. Az. Time Alt. Az. Time Alt. Az.
19 Jun ? 19:07:33 10° WSW 19:10:49 18° SSW 19:11:44 17° S visible
20 Jun ? 17:40:38 10° W 17:45:01 37° SSW 17:49:26 10° SE visible
20 Jun ? 19:25:21 10° SW 19:27:24 13° SSW 19:27:24 13° SSW visible
21 Jun ? 17:57:51 10° WSW 18:01:36 23° SSW 18:05:22 10° SSE visible
22 Jun ? 18:15:29 10° SW 18:18:21 16° SSW 18:21:14 10° SSE visible
23 Jun ? 18:33:22 10° SSW 18:35:15 12° S 18:37:07 10° SSE visible
24 Jun ? 18:51:09 10° SSW 18:52:13 11° S 18:52:48 10° S visible
25 Jun ? 19:07:48 10° S 19:08:25 11° S 19:08:25 11° S visible
26 Jun ? 17:41:23 10° SSW 17:42:51 11° S 17:44:19 10° SSE visible
26 Jun ? 19:23:46 10° SSW 19:24:04 11° SSW 19:24:04 11° SSW visible
27 Jun ? 17:58:48 10° SSW 17:59:50 11° S 18:00:52 10° SSE visible
27 Jun ? 19:39:37 10° SSW 19:39:45 10° SSW 19:39:45 10° SSW visible
28 Jun ? 18:15:02 10° SSW 18:16:49 12° S 18:18:26 10° SSE visible
